Location: Betzi
(47.2343°N, 9.5260°E)
Time: 17:01:10
(UTC+00:00)

Cosmos 2150 Rocket - Pass Details

Date: 27 May 2022
Orbit: 749 x 807 km, 74.0° (Epoch: 06 July)

Event Time Altitude Azimuth Distance (km) Brightness Sun altitude
Exits shadow 00:32:37 32° 235° (SW) 1,273 4.7 -19.5°
Maximum altitude 00:34:46 55° 296° (WNW) 908 4.4 -19.4°
Drops below altitude 10° 00:39:50 10° 15° (NNE) 2,280 7.7 -19.1°
Sets 00:42:16 0° 20° (NNE) 3,207 8.9 -19.0°
